This demonstration page uses our WeatherBlox Daily Observations layout. Learn more.

Left ArrowRight Arrow

Hourly Observations for October 8, 2016

Temp ( °F °C ) Dew Point ( °F °C ) Humidity (%) Winds ( mph kmh ) Pressure ( in mb ) Visibility ( mi km ) Precip ( " mm )
12:16 am 00:16 Clear 55 13 48 9 77 77 N 15 24 30.15 1021 10 16.0934 N/A
12:36 am 00:36 Clear 55 13 48 9 77 77 N 14 22 30.15 1021 10 16.0934 N/A
12:56 am 00:56 Partly Cloudy 55 13 50 10 82 82 N 12 19 30.21 1023 10 16.0934 N/A
1:16 am 01:16 Partly Cloudy 55 13 48 9 77 77 N 12 19 30.15 1021 10 16.0934 N/A
1:37 am 01:37 Clear 54 12 48 9 82 82 NNW 10 17 30.21 1023 10 16.0934 N/A
1:56 am 01:56 Clear 54 12 48 9 82 82 NNW 10 17 30.21 1023 10 16.0934 N/A
2:16 am 02:16 Clear 54 12 48 9 82 82 NNW 9 15 30.21 1023 10 16.0934 N/A
2:37 am 02:37 Clear 52 11 46 8 82 82 N 10 17 30.21 1023 10 16.0934 N/A
2:56 am 02:56 Clear 52 11 46 8 82 82 N 8 13 30.21 1023 10 16.0934 N/A
3:16 am 03:16 Clear 50 10 46 8 88 88 NNW 7 11 30.21 1023 10 16.0934 N/A
3:36 am 03:36 Clear 50 10 45 7 82 82 NNW 9 15 30.21 1023 10 16.0934 N/A
3:56 am 03:56 Clear 50 10 45 7 82 82 NNW 9 15 30.21 1023 10 16.0934 N/A
4:16 am 04:16 Clear 50 10 43 6 76 76 N 8 13 30.21 1023 10 16.0934 N/A
4:36 am 04:36 Clear 48 9 43 6 82 82 N 9 15 30.21 1023 10 16.0934 N/A
4:56 am 04:56 Clear 48 9 43 6 82 82 NNW 8 13 30.21 1023 10 16.0934 N/A
5:16 am 05:16 Clear 48 9 43 6 82 82 N 9 15 30.21 1023 10 16.0934 N/A
5:36 am 05:36 Clear 48 9 41 5 76 76 N 8 13 30.21 1023 10 16.0934 N/A
5:56 am 05:56 Clear 48 9 41 5 76 76 N 8 13 30.21 1023 10 16.0934 N/A
6:16 am 06:16 Clear 46 8 41 5 82 82 N 7 11 30.21 1023 10 16.0934 N/A
6:36 am 06:36 Clear 46 8 41 5 82 82 N 8 13 30.21 1023 10 16.0934 N/A
6:56 am 06:56 Clear 46 8 41 5 82 82 N 6 9 30.21 1023 10 16.0934 N/A
7:17 am 07:17 Clear 45 7 41 5 87 87 NNW 6 9 30.24 1024 10 16.0934 N/A
7:36 am 07:36 Clear 45 7 41 5 87 87 N 6 9 30.24 1024 10 16.0934 N/A
7:56 am 07:56 Sunny 45 7 39 4 81 81 NNW 6 9 30.24 1024 10 16.0934 N/A
8:16 am 08:16 Sunny 46 8 39 4 76 76 NNW 8 13 30.27 1025 10 16.0934 N/A
8:36 am 08:36 Sunny 48 9 39 4 71 71 N 10 17 30.27 1025 10 16.0934 N/A
8:56 am 08:56 Sunny 50 10 39 4 67 67 N 13 20 30.27 1025 10 16.0934 N/A
9:17 am 09:17 Sunny 50 10 39 4 67 67 N 15 24 30.27 1025 10 16.0934 N/A
9:36 am 09:36 Sunny 52 11 39 4 62 62 N 15 24 30.24 1024 10 16.0934 N/A
9:56 am 09:56 Sunny 52 11 39 4 62 62 N 16 26 30.27 1025 10 16.0934 N/A
10:17 am 10:17 Sunny 54 12 39 4 58 58 N 14 22 30.27 1025 10 16.0934 N/A
10:36 am 10:36 Sunny 55 13 39 4 55 55 N 15 24 30.27 1025 10 16.0934 N/A
10:56 am 10:56 Sunny 55 13 39 4 55 55 N 18 30 30.27 1025 10 16.0934 N/A
11:16 am 11:16 Sunny 55 13 39 4 55 55 N 17 28 30.3 1026 10 16.0934 N/A
11:36 am 11:36 Sunny 57 14 37 3 48 48 N 15 24 30.24 1024 10 16.0934 N/A
11:56 am 11:56 Sunny 57 14 37 3 48 48 N 15 24 30.24 1024 10 16.0934 N/A
12:16 pm 12:16 Sunny 59 15 37 3 45 45 N 12 19 30.24 1024 10 16.0934 N/A
12:36 pm 12:36 Sunny 61 16 36 2 39 39 N 15 24 30.24 1024 10 16.0934 N/A
12:56 pm 12:56 Sunny 61 16 36 2 39 39 NNW 15 24 30.24 1024 10 16.0934 N/A
1:16 pm 13:16 Sunny 63 17 36 2 37 37 NNW 14 22 30.24 1024 10 16.0934 N/A
1:36 pm 13:36 Sunny 63 17 37 3 39 39 N 13 20 30.24 1024 10 16.0934 N/A
1:56 pm 13:56 Sunny 63 17 37 3 39 39 NNW 16 26 30.24 1024 10 16.0934 N/A
2:16 pm 14:16 Sunny 63 17 37 3 39 39 NNW 15 24 30.24 1024 10 16.0934 N/A
2:36 pm 14:36 Sunny 64 18 39 4 40 40 NNW 14 22 30.21 1023 10 16.0934 N/A
2:56 pm 14:56 Sunny 64 18 39 4 40 40 N 15 24 30.21 1023 10 16.0934 N/A
3:16 pm 15:16 Sunny 64 18 39 4 40 40 N 15 24 30.21 1023 10 16.0934 N/A
3:36 pm 15:36 Sunny 64 18 39 4 40 40 N 13 20 30.21 1023 10 16.0934 N/A
3:56 pm 15:56 Sunny 64 18 41 5 43 43 N 9 15 30.21 1023 10 16.0934 N/A
4:16 pm 16:16 Sunny 64 18 39 4 40 40 N 15 24 30.21 1023 10 16.0934 N/A
4:36 pm 16:36 Sunny 64 18 39 4 40 40 N 12 19 30.21 1023 10 16.0934 N/A
4:56 pm 16:56 Sunny 64 18 39 4 40 40 NNW 13 20 30.21 1023 10 16.0934 N/A
5:16 pm 17:16 Sunny 64 18 39 4 40 40 NNW 12 19 30.21 1023 10 16.0934 N/A
5:36 pm 17:36 Sunny 64 18 39 4 40 40 N 10 17 30.21 1023 10 16.0934 N/A
5:57 pm 17:57 Sunny 64 18 37 3 37 37 NNW 9 15 30.21 1023 10 16.0934 N/A
6:16 pm 18:16 Sunny 63 17 39 4 42 42 NNW 8 13 30.21 1023 10 16.0934 N/A
6:36 pm 18:36 Sunny 63 17 39 4 42 42 N 8 13 30.21 1023 10 16.0934 N/A
6:57 pm 18:57 Sunny 59 15 39 4 48 48 N 5 7 30.21 1023 10 16.0934 N/A
7:16 pm 19:16 Clear 59 15 39 4 48 48 NNW 3 6 30.21 1023 10 16.0934 N/A
7:36 pm 19:36 Clear 57 14 39 4 51 51 NNW 3 6 30.21 1023 10 16.0934 N/A
7:57 pm 19:57 Clear 52 11 41 5 67 67 N N/A 30.27 1025 10 16.0934 N/A
8:16 pm 20:16 Clear 50 10 43 6 76 76 N N/A 30.27 1025 10 16.0934 N/A
8:36 pm 20:36 Clear 50 10 43 6 76 76 N N/A 30.27 1025 10 16.0934 N/A
8:57 pm 20:57 Clear 48 9 43 6 82 82 N N/A 30.27 1025 10 16.0934 N/A
9:16 pm 21:16 Clear 52 11 41 5 67 67 N N/A 30.27 1025 10 16.0934 N/A
9:36 pm 21:36 Clear 48 9 43 6 82 82 N N/A 30.27 1025 10 16.0934 N/A
9:56 pm 21:56 Clear 48 9 43 6 82 82 N N/A 30.27 1025 10 16.0934 N/A
10:16 pm 22:16 Clear 48 9 43 6 82 82 N N/A 30.27 1025 10 16.0934 N/A
10:36 pm 22:36 Clear 46 8 43 6 87 87 N N/A 30.27 1025 10 16.0934 N/A
10:56 pm 22:56 Clear 46 8 43 6 87 87 N N/A 30.27 1025 10 16.0934 N/A
11:16 pm 23:16 Clear 46 8 43 6 87 87 N N/A 30.3 1026 10 16.0934 N/A
11:37 pm 23:37 Clear 46 8 43 6 87 87 N N/A 30.3 1026 10 16.0934 N/A
11:56 pm 23:56 Clear 45 7 43 6 93 93 N N/A 30.3 1026 10 16.0934 N/A

Powered by AerisWeather